Time,TemperatureF,DewpointF,PressureIn,WindDirection,WindDirectionDegrees,WindSpeedMPH,WindSpeedGustMPH,Humidity,HourlyPrecipIn,Conditions,Clouds,dailyrainin,SolarRadiationWatts/m^2,SoftwareType,DateUTC
2013-03-30 00:01:00,49.0,31.0,-100.00,SW,235,13.0,17.0,51,-99.99,,,-99.99,-0.100000,,2013-03-30 06:01:00,
2013-03-30 00:11:00,49.0,31.0,-100.00,SW,235,13.0,18.0,50,-99.99,,,-99.99,-0.100000,,2013-03-30 06:11:00,
2013-03-30 00:21:00,49.0,31.0,-100.00,WSW,237,13.0,17.0,49,-99.99,,,-99.99,-0.100000,,2013-03-30 06:21:00,
2013-03-30 00:32:00,49.0,31.0,-100.00,WSW,242,12.0,17.0,49,-99.99,,,-99.99,-0.100000,,2013-03-30 06:32:00,
2013-03-30 00:41:00,49.0,31.0,-100.00,WSW,241,13.0,18.0,50,-99.99,,,-99.99,-0.100000,,2013-03-30 06:41:00,
2013-03-30 00:52:00,48.0,31.0,-100.00,WSW,240,14.0,19.0,51,-99.99,,,-99.99,-0.100000,,2013-03-30 06:52:00,
2013-03-30 01:02:00,47.0,32.0,-100.00,WSW,252,11.0,17.0,54,-99.99,,,-99.99,-0.100000,,2013-03-30 07:02:00,
2013-03-30 01:11:00,46.0,31.0,-100.00,WSW,244,12.0,17.0,55,-99.99,,,-99.99,-0.100000,,2013-03-30 07:11:00,
2013-03-30 01:21:00,47.0,31.0,-100.00,WSW,241,13.0,19.0,55,-99.99,,,-99.99,-0.100000,,2013-03-30 07:21:00,
2013-03-30 01:32:00,45.0,32.0,-100.00,WSW,247,13.0,17.0,58,-99.99,,,-99.99,-0.100000,,2013-03-30 07:32:00,
2013-03-30 01:41:00,44.0,31.0,-100.00,WSW,253,12.0,16.0,61,-99.99,,,-99.99,-0.100000,,2013-03-30 07:41:00,
2013-03-30 01:52:00,44.0,31.0,-100.00,WSW,254,13.0,17.0,61,-99.99,,,-99.99,-0.100000,,2013-03-30 07:52:00,
2013-03-30 02:01:00,45.0,31.0,-100.00,WSW,255,13.0,17.0,58,-99.99,,,-99.99,-0.100000,,2013-03-30 08:01:00,
2013-03-30 02:11:00,45.0,31.0,-100.00,WSW,253,14.0,18.0,58,-99.99,,,-99.99,0.000000,,2013-03-30 08:11:00,
2013-03-30 02:21:00,45.0,31.0,-100.00,WSW,251,13.0,18.0,57,-99.99,,,-99.99,-0.100000,,2013-03-30 08:21:00,
2013-03-30 02:31:00,44.0,31.0,-100.00,WSW,251,13.0,18.0,58,-99.99,,,-99.99,0.000000,,2013-03-30 08:31:00,
2013-03-30 02:42:00,44.0,31.0,-100.00,WSW,254,12.0,16.0,59,-99.99,,,-99.99,-0.100000,,2013-03-30 08:42:00,
2013-03-30 02:52:00,44.0,31.0,-100.00,WSW,255,13.0,15.0,60,-99.99,,,-99.99,-0.200000,,2013-03-30 08:52:00,
2013-03-30 03:01:00,44.0,31.0,-100.00,WSW,256,11.0,14.0,58,-99.99,,,-99.99,-0.100000,,2013-03-30 09:01:00,
2013-03-30 03:11:00,42.0,31.0,-100.00,NNW,341,6.0,11.0,63,-99.99,,,-99.99,-0.100000,,2013-03-30 09:11:00,
2013-03-30 03:22:00,42.0,31.0,-100.00,WNW,299,7.0,11.0,64,-99.99,,,-99.99,-0.100000,,2013-03-30 09:22:00,
2013-03-30 03:33:00,42.0,30.0,-100.00,West,275,4.0,6.0,62,-99.99,,,-99.99,-0.100000,,2013-03-30 09:33:00,
2013-03-30 03:42:00,41.0,30.0,-100.00,WNW,303,6.0,9.0,64,-99.99,,,-99.99,-0.100000,,2013-03-30 09:42:00,
2013-03-30 03:52:00,41.0,30.0,-100.00,NW,307,6.0,7.0,65,-99.99,,,-99.99,-0.100000,,2013-03-30 09:52:00,
2013-03-30 04:02:00,40.0,30.0,-100.00,West,277,6.0,7.0,66,-99.99,,,-99.99,-0.100000,,2013-03-30 10:02:00,
2013-03-30 04:12:00,40.0,30.0,-100.00,West,264,6.0,7.0,66,-99.99,,,-99.99,-0.100000,,2013-03-30 10:12:00,
2013-03-30 04:22:00,40.0,30.0,-100.00,West,266,7.0,8.0,65,-99.99,,,-99.99,-0.100000,,2013-03-30 10:22:00,
2013-03-30 04:32:00,40.0,30.0,-100.00,West,273,7.0,8.0,66,-99.99,,,-99.99,-0.100000,,2013-03-30 10:32:00,
2013-03-30 04:42:00,39.0,29.0,-100.00,WNW,289,6.0,8.0,68,-99.99,,,-99.99,-0.100000,,2013-03-30 10:42:00,
2013-03-30 04:52:00,38.0,29.0,-100.00,WNW,291,5.0,6.0,69,-99.99,,,-99.99,-0.100000,,2013-03-30 10:52:00,
2013-03-30 05:02:00,39.0,30.0,-100.00,WNW,285,4.0,6.0,68,-99.99,,,-99.99,-0.100000,,2013-03-30 11:02:00,
2013-03-30 05:12:00,38.0,29.0,-100.00,SW,227,4.0,5.0,70,-99.99,,,-99.99,-0.100000,,2013-03-30 11:12:00,
2013-03-30 05:21:00,36.0,29.0,-100.00,SW,226,3.0,4.0,75,-99.99,,,-99.99,0.000000,,2013-03-30 11:21:00,
2013-03-30 05:32:00,36.0,29.0,-100.00,WSW,258,4.0,6.0,76,-99.99,,,-99.99,-0.100000,,2013-03-30 11:32:00,
2013-03-30 05:42:00,36.0,29.0,-100.00,WNW,291,2.0,4.0,74,-99.99,,,-99.99,-0.100000,,2013-03-30 11:42:00,
2013-03-30 05:52:00,36.0,29.0,-100.00,South,172,4.0,6.0,75,-99.99,,,-99.99,-0.100000,,2013-03-30 11:52:00,
2013-03-30 06:02:00,35.0,28.0,-100.00,South,172,5.0,6.0,77,-99.99,,,-99.99,-0.100000,,2013-03-30 12:02:00,
2013-03-30 06:11:00,34.0,28.0,-100.00,South,187,5.0,6.0,79,-99.99,,,-99.99,-0.100000,,2013-03-30 12:11:00,
2013-03-30 06:21:00,35.0,29.0,-100.00,SSW,197,6.0,7.0,76,-99.99,,,-99.99,-0.100000,,2013-03-30 12:21:00,
2013-03-30 06:32:00,35.0,29.0,-100.00,SSW,203,6.0,7.0,77,-99.99,,,-99.99,-0.100000,,2013-03-30 12:32:00,
2013-03-30 06:41:00,35.0,29.0,-100.00,SSW,201,4.0,5.0,77,-99.99,,,-99.99,0.000000,,2013-03-30 12:41:00,
2013-03-30 06:52:00,32.0,27.0,-100.00,SSW,195,3.0,4.0,81,-99.99,,,-99.99,-0.100000,,2013-03-30 12:52:00,
2013-03-30 07:02:00,32.0,27.0,-100.00,SW,221,2.0,4.0,80,-99.99,,,-99.99,-0.100000,,2013-03-30 13:02:00,
2013-03-30 07:11:00,30.0,26.0,-100.00,SSW,207,4.0,4.0,84,-99.99,,,-99.99,0.100000,,2013-03-30 13:11:00,
2013-03-30 07:21:00,31.0,26.0,-100.00,SW,229,4.0,5.0,81,-99.99,,,-99.99,0.400000,,2013-03-30 13:21:00,
2013-03-30 07:32:00,29.0,25.0,-100.00,West,266,4.0,4.0,84,-99.99,,,-99.99,2.400000,,2013-03-30 13:32:00,
2013-03-30 07:42:00,28.0,25.0,-100.00,WNW,288,5.0,5.0,86,-99.99,,,-99.99,8.100000,,2013-03-30 13:42:00,
2013-03-30 07:52:00,28.0,25.0,-100.00,NW,312,5.0,6.0,87,-99.99,,,-99.99,21.799999,,2013-03-30 13:52:00,
2013-03-30 08:02:00,29.0,26.0,-100.00,NW,325,5.0,6.0,86,-99.99,,,-99.99,44.900002,,2013-03-30 14:02:00,
2013-03-30 08:11:00,29.0,25.0,-100.00,NW,322,6.0,7.0,85,-99.99,,,-99.99,75.900002,,2013-03-30 14:11:00,
2013-03-30 08:21:00,31.0,27.0,-100.00,WNW,300,5.0,6.0,85,-99.99,,,-99.99,109.199997,,2013-03-30 14:21:00,
2013-03-30 08:32:00,32.0,27.0,-100.00,NW,306,5.0,6.0,83,-99.99,,,-99.99,139.199997,,2013-03-30 14:32:00,
2013-03-30 08:41:00,33.0,29.0,-100.00,NW,312,6.0,7.0,81,-99.99,,,-99.99,169.399994,,2013-03-30 14:41:00,
2013-03-30 08:52:00,35.0,29.0,-100.00,NW,321,4.0,5.0,79,-99.99,,,-99.99,200.399994,,2013-03-30 14:52:00,
2013-03-30 09:02:00,36.0,30.0,-100.00,NW,314,3.0,4.0,77,-99.99,,,-99.99,232.199997,,2013-03-30 15:02:00,
2013-03-30 09:11:00,37.0,30.0,-100.00,West,267,1.0,3.0,76,-99.99,,,-99.99,264.899994,,2013-03-30 15:11:00,
2013-03-30 09:21:00,38.0,31.0,-100.00,West,263,3.0,4.0,75,-99.99,,,-99.99,297.399994,,2013-03-30 15:21:00,
2013-03-30 09:33:00,39.0,32.0,-100.00,WNW,283,4.0,6.0,73,-99.99,,,-99.99,330.600006,,2013-03-30 15:33:00,
2013-03-30 09:42:00,41.0,32.0,-100.00,North,357,3.0,5.0,69,-99.99,,,-99.99,362.700012,,2013-03-30 15:42:00,
2013-03-30 09:52:00,43.0,32.0,-100.00,North,349,5.0,7.0,65,-99.99,,,-99.99,393.100006,,2013-03-30 15:52:00,
2013-03-30 10:02:00,44.0,34.0,-100.00,North,2,6.0,8.0,66,-99.99,,,-99.99,424.100006,,2013-03-30 16:02:00,
2013-03-30 10:12:00,44.0,34.0,-100.00,North,4,5.0,6.0,65,-99.99,,,-99.99,455.700012,,2013-03-30 16:12:00,
2013-03-30 10:22:00,45.0,34.0,-100.00,NNE,25,4.0,6.0,64,-99.99,,,-99.99,486.200012,,2013-03-30 16:22:00,
2013-03-30 10:32:00,45.0,35.0,-100.00,North,4,3.0,5.0,66,-99.99,,,-99.99,516.400024,,2013-03-30 16:32:00,
2013-03-30 10:42:00,46.0,35.0,-100.00,NE,42,2.0,4.0,63,-99.99,,,-99.99,546.700012,,2013-03-30 16:42:00,
2013-03-30 10:52:00,47.0,35.0,-100.00,SSW,200,2.0,2.0,62,-99.99,,,-99.99,574.200012,,2013-03-30 16:52:00,
2013-03-30 11:02:00,48.0,35.0,-100.00,WSW,246,3.0,5.0,60,-99.99,,,-99.99,598.799988,,2013-03-30 17:02:00,
2013-03-30 11:12:00,49.0,35.0,-100.00,SSW,200,4.0,5.0,59,-99.99,,,-99.99,624.200012,,2013-03-30 17:12:00,
2013-03-30 11:22:00,49.0,35.0,-100.00,SW,222,3.0,5.0,57,-99.99,,,-99.99,646.400024,,2013-03-30 17:22:00,
2013-03-30 11:32:00,50.0,35.0,-100.00,SSE,162,2.0,3.0,55,-99.99,,,-99.99,670.799988,,2013-03-30 17:32:00,
2013-03-30 11:42:00,51.0,35.0,-100.00,South,172,2.0,3.0,54,-99.99,,,-99.99,693.700012,,2013-03-30 17:42:00,
2013-03-30 11:52:00,51.0,35.0,-100.00,SSE,148,2.0,4.0,53,-99.99,,,-99.99,715.599976,,2013-03-30 17:52:00,
2013-03-30 12:02:00,52.0,34.0,-100.00,NNE,26,3.0,5.0,50,-99.99,,,-99.99,735.500000,,2013-03-30 18:02:00,
2013-03-30 12:11:00,53.0,34.0,-100.00,ENE,67,2.0,4.0,49,-99.99,,,-99.99,752.000000,,2013-03-30 18:11:00,
2013-03-30 12:21:00,53.0,34.0,-100.00,ENE,73,3.0,6.0,46,-99.99,,,-99.99,769.500000,,2013-03-30 18:21:00,
2013-03-30 12:32:00,54.0,33.0,-100.00,SE,124,3.0,5.0,45,-99.99,,,-99.99,782.700012,,2013-03-30 18:32:00,
2013-03-30 12:42:00,54.0,33.0,-100.00,South,185,4.0,8.0,45,-99.99,,,-99.99,793.799988,,2013-03-30 18:42:00,
2013-03-30 12:52:00,54.0,33.0,-100.00,South,176,4.0,8.0,45,-99.99,,,-99.99,802.000000,,2013-03-30 18:52:00,
2013-03-30 13:02:00,54.0,33.0,-100.00,ENE,69,4.0,7.0,43,-99.99,,,-99.99,817.000000,,2013-03-30 19:02:00,
2013-03-30 13:11:00,56.0,33.0,-100.00,ENE,64,4.0,8.0,41,-99.99,,,-99.99,823.000000,,2013-03-30 19:11:00,
2013-03-30 13:21:00,56.0,31.0,-100.00,NNE,15,6.0,10.0,39,-99.99,,,-99.99,837.000000,,2013-03-30 19:21:00,
2013-03-30 13:32:00,56.0,31.0,-100.00,WNW,288,4.0,6.0,38,-99.99,,,-99.99,860.000000,,2013-03-30 19:32:00,
2013-03-30 13:41:00,56.0,29.0,-100.00,ESE,113,2.0,5.0,36,-99.99,,,-99.99,882.000000,,2013-03-30 19:41:00,
2013-03-30 13:52:00,56.0,29.0,-100.00,East,89,5.0,8.0,35,-99.99,,,-99.99,890.000000,,2013-03-30 19:52:00,
2013-03-30 14:02:00,57.0,29.0,-100.00,SE,131,10.0,13.0,34,-99.99,,,-99.99,896.000000,,2013-03-30 20:02:00,
2013-03-30 14:11:00,57.0,29.0,-100.00,ESE,119,10.0,14.0,34,-99.99,,,-99.99,865.000000,,2013-03-30 20:11:00,
2013-03-30 14:21:00,56.0,29.0,-100.00,South,182,5.0,10.0,35,-99.99,,,-99.99,843.000000,,2013-03-30 20:21:00,
2013-03-30 14:32:00,58.0,29.0,-100.00,SE,134,7.0,9.0,33,-99.99,,,-99.99,828.000000,,2013-03-30 20:32:00,
2013-03-30 14:42:00,59.0,30.0,-100.00,ESE,113,10.0,14.0,33,-99.99,,,-99.99,820.000000,,2013-03-30 20:42:00,
2013-03-30 14:52:00,59.0,30.0,-100.00,ESE,114,12.0,16.0,33,-99.99,,,-99.99,814.000000,,2013-03-30 20:52:00,
2013-03-30 15:02:00,58.0,29.0,-100.00,SE,133,10.0,15.0,33,-99.99,,,-99.99,804.000000,,2013-03-30 21:02:00,
2013-03-30 15:11:00,58.0,29.0,-100.00,SE,127,9.0,12.0,33,-99.99,,,-99.99,225.399994,,2013-03-30 21:11:00,
2013-03-30 15:21:00,59.0,29.0,-100.00,SE,143,14.0,16.0,32,-99.99,,,-99.99,771.799988,,2013-03-30 21:21:00,
2013-03-30 15:32:00,59.0,30.0,-100.00,SSE,152,10.0,13.0,32,-99.99,,,-99.99,758.000000,,2013-03-30 21:32:00,
2013-03-30 15:42:00,59.0,29.0,-100.00,SSE,148,12.0,16.0,32,-99.99,,,-99.99,741.900024,,2013-03-30 21:42:00,
2013-03-30 15:52:00,59.0,29.0,-100.00,SE,129,10.0,13.0,32,-99.99,,,-99.99,724.400024,,2013-03-30 21:52:00,
2013-03-30 16:02:00,59.0,29.0,-100.00,SE,140,10.0,17.0,32,-99.99,,,-99.99,704.299988,,2013-03-30 22:02:00,
2013-03-30 16:12:00,60.0,29.0,-100.00,SE,131,10.0,13.0,31,-99.99,,,-99.99,685.299988,,2013-03-30 22:12:00,
2013-03-30 16:23:00,59.0,29.0,-100.00,SE,128,7.0,13.0,32,-99.99,,,-99.99,660.799988,,2013-03-30 22:23:00,
2013-03-30 16:32:00,60.0,30.0,-100.00,ESE,102,9.0,13.0,31,-99.99,,,-99.99,637.400024,,2013-03-30 22:32:00,
2013-03-30 16:42:00,60.0,29.0,-100.00,ESE,106,9.0,13.0,31,-99.99,,,-99.99,612.200012,,2013-03-30 22:42:00,
2013-03-30 16:52:00,59.0,29.0,-100.00,ESE,112,9.0,12.0,31,-99.99,,,-99.99,586.000000,,2013-03-30 22:52:00,
2013-03-30 17:02:00,60.0,29.0,-100.00,ESE,103,8.0,11.0,31,-99.99,,,-99.99,559.000000,,2013-03-30 23:02:00,
2013-03-30 17:12:00,60.0,29.0,-100.00,East,99,11.0,14.0,30,-99.99,,,-99.99,531.299988,,2013-03-30 23:12:00,
2013-03-30 17:22:00,60.0,28.0,-100.00,ESE,104,10.0,11.0,30,-99.99,,,-99.99,502.100006,,2013-03-30 23:22:00,
2013-03-30 17:31:00,60.0,28.0,-100.00,ESE,115,10.0,13.0,28,-99.99,,,-99.99,474.299988,,2013-03-30 23:31:00,
2013-03-30 17:41:00,60.0,27.0,-100.00,ESE,109,8.0,13.0,29,-99.99,,,-99.99,442.500000,,2013-03-30 23:41:00,
2013-03-30 17:52:00,60.0,28.0,-100.00,ESE,117,9.0,11.0,29,-99.99,,,-99.99,412.500000,,2013-03-30 23:52:00,
2013-03-30 18:02:00,60.0,28.0,-100.00,ESE,110,10.0,13.0,29,-99.99,,,-99.99,380.500000,,2013-03-31 00:02:00,
2013-03-30 18:11:00,60.0,27.0,-100.00,ESE,105,9.0,12.0,29,-99.99,,,-99.99,348.000000,,2013-03-31 00:11:00,
2013-03-30 18:22:00,60.0,28.0,-100.00,ESE,111,9.0,13.0,29,-99.99,,,-99.99,315.299988,,2013-03-31 00:22:00,
2013-03-30 18:32:00,60.0,28.0,-100.00,ESE,122,7.0,9.0,29,-99.99,,,-99.99,282.200012,,2013-03-31 00:32:00,
2013-03-30 18:41:00,60.0,27.0,-100.00,ESE,113,6.0,9.0,29,-99.99,,,-99.99,247.699997,,2013-03-31 00:41:00,
2013-03-30 18:52:00,60.0,28.0,-100.00,ESE,116,7.0,10.0,29,-99.99,,,-99.99,217.000000,,2013-03-31 00:52:00,
2013-03-30 19:01:00,60.0,27.0,-100.00,ESE,117,8.0,10.0,29,-99.99,,,-99.99,185.699997,,2013-03-31 01:01:00,
2013-03-30 19:11:00,59.0,28.0,-100.00,ESE,119,7.0,8.0,30,-99.99,,,-99.99,155.399994,,2013-03-31 01:11:00,
2013-03-30 19:21:00,59.0,28.0,-100.00,ESE,115,6.0,8.0,30,-99.99,,,-99.99,125.599998,,2013-03-31 01:21:00,
2013-03-30 19:32:00,58.0,28.0,-100.00,ESE,117,7.0,8.0,31,-99.99,,,-99.99,93.000000,,2013-03-31 01:32:00,
2013-03-30 19:42:00,57.0,28.0,-100.00,ESE,115,6.0,7.0,33,-99.99,,,-99.99,61.400002,,2013-03-31 01:42:00,
2013-03-30 19:52:00,56.0,30.0,-100.00,ESE,120,6.0,7.0,36,-99.99,,,-99.99,34.900002,,2013-03-31 01:52:00,
2013-03-30 20:02:00,55.0,30.0,-100.00,SE,128,5.0,6.0,39,-99.99,,,-99.99,16.400000,,2013-03-31 02:02:00,
2013-03-30 20:11:00,54.0,30.0,-100.00,SE,132,6.0,6.0,39,-99.99,,,-99.99,6.300000,,2013-03-31 02:11:00,
2013-03-30 20:21:00,52.0,30.0,-100.00,SE,139,6.0,6.0,43,-99.99,,,-99.99,1.900000,,2013-03-31 02:21:00,
2013-03-30 20:32:00,52.0,31.0,-100.00,SE,140,6.0,7.0,44,-99.99,,,-99.99,0.200000,,2013-03-31 02:32:00,
2013-03-30 20:42:00,51.0,30.0,-100.00,SE,144,7.0,7.0,45,-99.99,,,-99.99,-0.100000,,2013-03-31 02:42:00,
2013-03-30 20:51:00,50.0,31.0,-100.00,SSE,149,7.0,7.0,48,-99.99,,,-99.99,-0.100000,,2013-03-31 02:51:00,
2013-03-30 21:02:00,49.0,32.0,-100.00,SSE,156,7.0,8.0,51,-99.99,,,-99.99,-0.100000,,2013-03-31 03:02:00,
2013-03-30 21:11:00,48.0,31.0,-100.00,SSE,154,8.0,9.0,51,-99.99,,,-99.99,-0.100000,,2013-03-31 03:11:00,
2013-03-30 21:21:00,48.0,32.0,-100.00,SSE,155,8.0,8.0,53,-99.99,,,-99.99,-0.100000,,2013-03-31 03:21:00,
2013-03-30 21:32:00,47.0,31.0,-100.00,SSE,164,6.0,6.0,53,-99.99,,,-99.99,-0.100000,,2013-03-31 03:32:00,
2013-03-30 21:42:00,47.0,31.0,-100.00,South,181,6.0,7.0,53,-99.99,,,-99.99,-0.100000,,2013-03-31 03:42:00,
2013-03-30 21:53:00,47.0,31.0,-100.00,South,185,7.0,8.0,53,-99.99,,,-99.99,-0.100000,,2013-03-31 03:53:00,
2013-03-30 22:02:00,46.0,-99.9,-100.00,South,182,6.0,7.0,54,-99.99,,,-99.99,-0.100000,,2013-03-31 04:02:00,
2013-03-30 22:12:00,45.0,31.0,-100.00,SSW,195,6.0,6.0,57,-99.99,,,-99.99,-0.100000,,2013-03-31 04:12:00,
2013-03-30 22:22:00,41.0,27.0,-100.00,SSW,207,3.0,4.0,57,-99.99,,,-99.99,-0.100000,,2013-03-31 04:22:00,
2013-03-30 22:32:00,41.0,27.0,-100.00,SW,217,2.0,4.0,56,-99.99,,,-99.99,-0.200000,,2013-03-31 04:32:00,
2013-03-30 22:42:00,41.0,27.0,-100.00,SSW,194,2.0,2.0,57,-99.99,,,-99.99,-0.100000,,2013-03-31 04:42:00,
2013-03-30 22:52:00,40.0,27.0,-100.00,West,267,1.0,2.0,57,-99.99,,,-99.99,-0.100000,,2013-03-31 04:52:00,
2013-03-30 23:02:00,39.0,26.0,-100.00,West,280,1.0,2.0,59,-99.99,,,-99.99,-0.100000,,2013-03-31 05:02:00,
2013-03-30 23:12:00,38.0,26.0,-100.00,NW,315,4.0,6.0,60,-99.99,,,-99.99,-0.100000,,2013-03-31 05:12:00,
2013-03-30 23:22:00,36.0,25.0,-100.00,NW,309,4.0,5.0,63,-99.99,,,-99.99,-0.100000,,2013-03-31 05:22:00,
2013-03-30 23:32:00,36.0,26.0,-100.00,NW,323,2.0,3.0,64,-99.99,,,-99.99,-0.100000,,2013-03-31 05:32:00,
2013-03-30 23:41:00,37.0,26.0,-100.00,NW,311,3.0,3.0,62,-99.99,,,-99.99,-0.100000,,2013-03-31 05:41:00,
2013-03-30 23:52:00,36.0,25.0,-100.00,NW,318,3.0,4.0,64,-99.99,,,-99.99,-0.100000,,2013-03-31 05:52:00,